Glens Falls, NY

3:05 PM EDT on October 18, 2019 (GMT -0400)
Bennett Memorial

Weather History for KGFL - August, 2019

Change the Weather History Date:

Tuesday, August 27, 2019

  Actual Average Record
Temperature  
Mean Temperature 61 °F 65 °F  
Max Temperature 75 °F 77 °F 96 °F (1952)
Min Temperature 46 °F 53 °F 40 °F (1954)
Degree Days  
Heating Degree Days 4 2  
Month to date heating degree days 24 34  
Since 1 June heating degree days 94 145  
Since 1 July heating degree days 24 55  
Cooling Degree Days 0 2  
Month to date cooling degree days 90 96  
Year to date cooling degree days 386 316  
Since 1 June cooling degree days 377 304  
Growing Degree Days 10 (Base 50)    
Moisture  
Dew Point 50 °F    
Average Humidity 73    
Maximum Humidity 100    
Minimum Humidity 46    
Precipitation  
Precipitation 0.00 in 0.10 in 2.04 in (1900)
Month to date precipitation 2.83 3.28  
Year to date precipitation 28.77 25.41  
Sea Level Pressure  
Sea Level Pressure 30.09 in    
Wind  
Wind Speed 5 mph (SSW)    
Max Wind Speed 17 mph    
Max Gust Speed 21 mph    
Visibility 5 miles    
Events Fog    
T = Trace of Precipitation, MM = Missing Value Source: NWS Daily Summary

Daily Weather History Graph

Daily Weather History Graph

Search for Another Location

Airport or City:

Astronomy

Aug. 27, 2019 Rise Set
Actual Time 6:12 AM EDT 7:38 PM EDT
Civil Twilight 5:42 AM EDT 8:08 PM EDT
Nautical Twilight 5:06 AM EDT 8:44 PM EDT
Astronomical Twilight 4:28 AM EDT 9:22 PM EDT
Moon 2:28 AM EDT (8/27) 6:02 PM EDT (8/27)
Length of Visible Light 14h 25m
Length of Day
13h 25m
Waning Crescent, 11% of the Moon is Illuminated
Aug 27
Waning Crescent
Aug 30
New
Sep 5
First Quarter
Sep 14
Full
Sep 21
Last Quarter

Hourly Weather History & Observations

Time (EDT) Temp. Dew Point Humidity Pressure Visibility Wind Dir Wind Speed Gust Speed Precip Events Conditions
12:00 AM 52.0 °F 51.1 °F 97% 30.13 in 8.0 mi Calm Calm - N/A   Clear
12:08 AM 51.1 °F 50.0 °F 96% 30.13 in 1.5 mi Calm Calm - N/A   Clear
12:10 AM 51.1 °F 50.0 °F 96% 30.13 in 1.0 mi Calm Calm - N/A   Mist
12:19 AM 51.1 °F 50.0 °F 96% 30.13 in 2.0 mi Calm Calm - N/A   Clear
12:28 AM 51.1 °F 50.0 °F 96% 30.13 in 1.0 mi Calm Calm - N/A   Clear
12:42 AM 51.1 °F 50.0 °F 96% 30.13 in 3.0 mi Calm Calm - N/A   Clear
12:53 AM 50.0 °F 48.9 °F 96% 30.13 in 10.0 mi Calm Calm - N/A   Clear
1:03 AM 50.0 °F 48.9 °F 96% 30.13 in 1.5 mi Calm Calm - N/A   Clear
1:17 AM 50.0 °F 48.9 °F 96% 30.13 in 0.8 mi Calm Calm - N/A   Clear
1:29 AM 51.1 °F 50.0 °F 96% 30.13 in 1.2 mi Calm Calm - N/A   Clear
1:53 AM 50.0 °F 48.9 °F 96% 30.13 in 10.0 mi Calm Calm - N/A   Clear
2:00 AM 48.9 °F 48.0 °F 97% 30.13 in 1.5 mi Calm Calm - N/A   Clear
2:10 AM 48.9 °F 48.0 °F 97% 30.13 in 0.8 mi Calm Calm - N/A   Clear
2:28 AM 48.9 °F 48.0 °F 97% 30.13 in 2.0 mi Calm Calm - N/A   Clear
2:35 AM 48.9 °F 48.0 °F 97% 30.13 in 10.0 mi Calm Calm - N/A   Clear
2:53 AM 48.9 °F 48.0 °F 97% 30.13 in 1.5 mi Calm Calm - N/A   Clear
3:06 AM 48.0 °F 46.9 °F 96% 30.12 in 0.8 mi Calm Calm - N/A   Clear
3:22 AM 48.9 °F 46.9 °F 93% 30.12 in 1.2 mi Calm Calm - N/A   Clear
3:50 AM 46.4 °F 46.4 °F 100% 30.12 in 1.5 mi Calm Calm - N/A   Clear
3:53 AM 46.9 °F 46.0 °F 97% 30.12 in 1.0 mi Calm Calm - N/A   Clear
4:09 AM 48.9 °F 46.9 °F 93% 30.12 in 3.0 mi Calm Calm - N/A   Clear
4:20 AM 48.0 °F 46.9 °F 96% 30.12 in 1.8 mi Calm Calm - N/A   Clear
4:30 AM 46.9 °F 46.9 °F 100% 30.11 in 0.8 mi Calm Calm - N/A   Clear
4:53 AM 46.9 °F 46.0 °F 97% 30.12 in 0.8 mi Calm Calm - N/A   Mostly Cloudy
5:00 AM 48.0 °F 46.9 °F 96% 30.11 in 1.5 mi Calm Calm - N/A   Overcast
5:03 AM 48.0 °F 46.9 °F 96% 30.11 in 3.0 mi Calm Calm - N/A   Overcast
5:08 AM 48.0 °F 46.9 °F 96% 30.11 in 1.2 mi Calm Calm - N/A   Overcast
5:16 AM 48.0 °F 46.9 °F 96% 30.11 in 0.2 mi Calm Calm - N/A Fog Fog
5:31 AM 48.0 °F 46.9 °F 96% 30.11 in 0.5 mi Calm Calm - N/A Fog Fog
5:53 AM 46.9 °F 46.0 °F 97% 30.11 in 0.8 mi Calm Calm - N/A   Overcast
6:22 AM 46.9 °F 46.9 °F 100% 30.11 in 1.5 mi Calm Calm - N/A   Scattered Clouds
6:25 AM 46.9 °F 46.9 °F 100% 30.11 in 4.0 mi Calm Calm - N/A   Scattered Clouds
6:34 AM 46.9 °F 46.0 °F 97% 30.11 in 2.0 mi Calm Calm - N/A   Mostly Cloudy
6:53 AM 48.0 °F 46.9 °F 96% 30.12 in 1.5 mi Calm Calm - N/A   Scattered Clouds
6:57 AM 48.0 °F 46.9 °F 96% 30.11 in 3.0 mi Calm Calm - N/A   Scattered Clouds
7:53 AM 53.1 °F 51.1 °F 93% 30.11 in 10.0 mi Calm Calm - N/A   Clear
8:53 AM 60.1 °F 54.0 °F 80% 30.11 in 10.0 mi Calm Calm - N/A   Clear
9:53 AM 63.0 °F 55.0 °F 75% 30.10 in 10.0 mi Variable 5.8 mph - N/A   Clear
10:53 AM 66.0 °F 55.9 °F 70% 30.09 in 10.0 mi SSE 9.2 mph - N/A   Clear
11:53 AM 70.0 °F 54.0 °F 57% 30.07 in 10.0 mi SSW 10.4 mph - N/A   Clear
12:53 PM 71.1 °F 55.9 °F 59% 30.05 in 10.0 mi South 6.9 mph - N/A   Clear
1:53 PM 73.9 °F 51.1 °F 45% 30.02 in 10.0 mi SSE 13.8 mph 20.7 mph N/A   Clear
2:53 PM 72.0 °F 52.0 °F 49% 30.01 in 10.0 mi SSW 15.0 mph - N/A   Clear
3:53 PM 72.0 °F 54.0 °F 53% 30.00 in 10.0 mi SW 5.8 mph - N/A   Clear
4:53 PM 73.0 °F 55.0 °F 53% 29.99 in 10.0 mi South 10.4 mph - N/A   Clear
5:53 PM 73.0 °F 53.1 °F 49% 29.99 in 10.0 mi South 9.2 mph - N/A   Scattered Clouds
6:53 PM 70.0 °F 55.0 °F 59% 29.97 in 10.0 mi SSW 5.8 mph - N/A   Mostly Cloudy
7:53 PM 69.1 °F 53.1 °F 57% 29.97 in 10.0 mi Variable 5.8 mph - N/A   Overcast
8:53 PM 69.1 °F 54.0 °F 58% 29.98 in 10.0 mi SSW 6.9 mph - N/A   Overcast
9:53 PM 66.9 °F 55.9 °F 68% 29.98 in 10.0 mi South 4.6 mph - N/A   Overcast
10:53 PM 66.0 °F 57.0 °F 73% 29.97 in 10.0 mi South 4.6 mph - N/A   Overcast
11:53 PM 66.0 °F 57.0 °F 73% 29.97 in 10.0 mi SSW 4.6 mph - N/A   Overcast